| time (UTC) | temp F | wind direction | speed MPH | gust MPH | rain 1hr in | rain 24hr in | rain mn in | humidity % | barometer mb |
| 20260503005435 | 74 | 26 | 6.0 | 12.0 | 0.00 | 0.01 | 0.00 | 67 | 1021.1 |
| 20260503004935 | 73 | 18 | 7.0 | 12.0 | 0.00 | 0.01 | 0.00 | 67 | 1021.2 |
| 20260503004435 | 73 | 17 | 8.0 | 11.0 | 0.00 | 0.01 | 0.00 | 67 | 1021.2 |
| 20260503003935 | 73 | 22 | 7.0 | 15.0 | 0.00 | 0.01 | 0.00 | 67 | 1021.3 |
| 20260503003435 | 73 | 28 | 7.0 | 12.0 | 0.00 | 0.01 | 0.00 | 69 | 1021.4 |
| 20260503002935 | 73 | 18 | 6.0 | 13.0 | 0.00 | 0.01 | 0.00 | 69 | 1021.3 |
| 20260503002435 | 73 | 18 | 4.0 | 6.0 | 0.00 | 0.01 | 0.00 | 69 | 1021.5 |
| 20260503001935 | 72 | 19 | 6.0 | 11.0 | 0.00 | 0.01 | 0.00 | 70 | 1021.7 |
| 20260503001435 | 72 | 28 | 5.0 | 12.0 | 0.00 | 0.01 | 0.00 | 71 | 1021.7 |
| 20260503000935 | 72 | 24 | 4.0 | 10.0 | 0.00 | 0.01 | 0.00 | 72 | 1021.7 |
| 20260503000437 | 72 | 0 | 4.0 | 9.0 | 0.00 | 0.01 | 0.00 | 72 | 1021.6 |
| 20260502235935 | 71 | 28 | 3.0 | 9.0 | 0.00 | 0.01 | 0.00 | 72 | 1021.8 |
| 20260502235435 | 71 | 28 | 3.0 | 8.0 | 0.00 | 0.01 | 0.00 | 73 | 1021.8 |
| 20260502234935 | 71 | 27 | 4.0 | 10.0 | 0.00 | 0.01 | 0.00 | 73 | 1021.8 |
| 20260502234435 | 71 | 28 | 5.0 | 6.0 | 0.00 | 0.01 | 0.00 | 73 | 1021.8 |
| 20260502233935 | 70 | 33 | 5.0 | 11.0 | 0.00 | 0.01 | 0.00 | 73 | 1021.7 |
| 20260502233435 | 70 | 0 | 4.0 | 9.0 | 0.00 | 0.01 | 0.00 | 75 | 1021.7 |
| 20260502232935 | 69 | 30 | 3.0 | 11.0 | 0.00 | 0.01 | 0.00 | 75 | 1021.8 |
| 20260502232435 | 69 | 33 | 4.0 | 10.0 | 0.00 | 0.01 | 0.00 | 75 | 1021.9 |
| 20260502231935 | 69 | 22 | 4.0 | 8.0 | 0.00 | 0.01 | 0.00 | 75 | 1021.8 |
| 20260502231435 | 68 | 0 | 5.0 | 10.0 | 0.00 | 0.01 | 0.00 | 76 | 1022.0 |
| 20260502230935 | 68 | 26 | 7.0 | 10.0 | 0.00 | 0.01 | 0.00 | 75 | 1022.0 |
| 20260502230435 | 68 | 25 | 6.0 | 11.0 | 0.00 | 0.01 | 0.00 | 76 | 1022.1 |
| 20260502225935 | 68 | 33 | 5.0 | 11.0 | 0.00 | 0.01 | 0.00 | 75 | 1022.1 |
| 20260502225435 | 68 | 24 | 5.0 | 9.0 | 0.00 | 0.01 | 0.00 | 75 | 1022.2 |
| 20260502224935 | 68 | 28 | 5.0 | 11.0 | 0.00 | 0.01 | 0.00 | 75 | 1022.2 |
| 20260502224435 | 68 | 24 | 4.0 | 7.0 | 0.00 | 0.01 | 0.00 | 76 | 1022.1 |
| 20260502223935 | 68 | 24 | 6.0 | 9.0 | 0.00 | 0.01 | 0.00 | 76 | 1022.1 |
| 20260502223435 | 67 | 28 | 6.0 | 12.0 | 0.00 | 0.01 | 0.00 | 76 | 1022.0 |
| 20260502222935 | 67 | 18 | 5.0 | 11.0 | 0.00 | 0.01 | 0.00 | 76 | 1022.0 |
| 20260502222435 | 67 | 25 | 4.0 | 9.0 | 0.00 | 0.01 | 0.00 | 77 | 1021.9 |
| 20260502221935 | 66 | 26 | 4.0 | 6.0 | 0.00 | 0.01 | 0.00 | 78 | 1021.9 |
| 20260502221435 | 66 | 36 | 5.0 | 8.0 | 0.00 | 0.02 | 0.00 | 77 | 1021.9 |
| 20260502220935 | 66 | 32 | 5.0 | 10.0 | 0.00 | 0.02 | 0.00 | 78 | 1021.9 |
| 20260502220435 | 66 | 24 | 6.0 | 11.0 | 0.00 | 0.02 | 0.00 | 78 | 1021.8 |
| 20260502215935 | 65 | 30 | 6.0 | 10.0 | 0.00 | 0.02 | 0.00 | 78 | 1021.7 |
| 20260502215435 | 65 | 30 | 5.0 | 12.0 | 0.00 | 0.02 | 0.00 | 79 | 1021.7 |
| 20260502214935 | 65 | 28 | 5.0 | 11.0 | 0.00 | 0.02 | 0.00 | 79 | 1021.6 |
| 20260502214435 | 65 | 30 | 5.0 | 9.0 | 0.00 | 0.02 | 0.00 | 80 | 1021.5 |
| 20260502213935 | 65 | 26 | 5.0 | 9.0 | 0.00 | 0.02 | 0.00 | 80 | 1021.3 |
| 20260502213435 | 65 | 30 | 6.0 | 9.0 | 0.00 | 0.02 | 0.00 | 80 | 1021.6 |
| 20260502212935 | 64 | 29 | 6.0 | 11.0 | 0.00 | 0.02 | 0.00 | 80 | 1021.5 |
| 20260502212435 | 64 | 31 | 6.0 | 10.0 | 0.00 | 0.02 | 0.00 | 81 | 1021.5 |
| 20260502211935 | 64 | 30 | 5.0 | 9.0 | 0.00 | 0.02 | 0.00 | 81 | 1021.4 |
| 20260502211435 | 64 | 32 | 5.0 | 11.0 | 0.00 | 0.02 | 0.00 | 81 | 1021.2 |
| 20260502210935 | 63 | 30 | 6.0 | 10.0 | 0.00 | 0.02 | 0.00 | 81 | 1021.1 |
| 20260502210435 | 63 | 26 | 6.0 | 10.0 | 0.00 | 0.02 | 0.00 | 82 | 1021.1 |
| 20260502205935 | 63 | 30 | 6.0 | 9.0 | 0.00 | 0.02 | 0.00 | 82 | 1021.3 |
| 20260502205435 | 63 | 29 | 6.0 | 10.0 | 0.00 | 0.02 | 0.00 | 82 | 1021.2 |
| 20260502204935 | 63 | 26 | 6.0 | 9.0 | 0.00 | 0.02 | 0.00 | 82 | 1021.0 |
| 20260502204435 | 63 | 24 | 5.0 | 9.0 | 0.00 | 0.02 | 0.00 | 82 | 1021.0 |
| 20260502203935 | 63 | 29 | 5.0 | 9.0 | 0.00 | 0.02 | 0.00 | 82 | 1021.0 |
| 20260502203435 | 63 | 27 | 6.0 | 9.0 | 0.00 | 0.02 | 0.00 | 82 | 1021.0 |
| 20260502202935 | 63 | 26 | 7.0 | 12.0 | 0.00 | 0.02 | 0.00 | 82 | 1020.8 |
| 20260502202435 | 63 | 26 | 8.0 | 11.0 | 0.00 | 0.02 | 0.00 | 82 | 1020.7 |
| 20260502201935 | 63 | 30 | 8.0 | 15.0 | 0.00 | 0.02 | 0.00 | 81 | 1020.7 |
| 20260502201435 | 63 | 26 | 7.0 | 11.0 | 0.00 | 0.02 | 0.00 | 81 | 1020.7 |
| 20260502200935 | 63 | 24 | 8.0 | 11.0 | 0.00 | 0.02 | 0.00 | 81 | 1020.7 |
| 20260502200435 | 63 | 24 | 8.0 | 12.0 | 0.00 | 0.02 | 0.00 | 82 | 1020.6 |
| 20260502195935 | 63 | 32 | 7.0 | 11.0 | 0.00 | 0.02 | 0.00 | 82 | 1020.7 |
| 20260502195435 | 63 | 28 | 6.0 | 9.0 | 0.00 | 0.02 | 0.00 | 83 | 1020.7 |
| 20260502194935 | 63 | 28 | 5.0 | 9.0 | 0.00 | 0.02 | 0.00 | 83 | 1020.7 |
| 20260502194435 | 63 | 28 | 6.0 | 10.0 | 0.00 | 0.02 | 0.00 | 82 | 1020.7 |
| 20260502193935 | 63 | 29 | 8.0 | 11.0 | 0.00 | 0.02 | 0.00 | 82 | 1020.5 |
| 20260502193435 | 63 | 25 | 8.0 | 14.0 | 0.00 | 0.02 | 0.00 | 82 | 1020.5 |
| 20260502192935 | 63 | 26 | 7.0 | 11.0 | 0.00 | 0.02 | 0.00 | 82 | 1020.4 |
| 20260502192435 | 63 | 27 | 7.0 | 12.0 | 0.00 | 0.02 | 0.00 | 82 | 1020.2 |
| 20260502191935 | 63 | 22 | 6.0 | 10.0 | 0.00 | 0.02 | 0.00 | 82 | 1020.3 |
| 20260502191435 | 63 | 22 | 4.0 | 8.0 | 0.00 | 0.02 | 0.00 | 82 | 1020.4 |
| 20260502190935 | 63 | 23 | 3.0 | 8.0 | 0.00 | 0.02 | 0.00 | 82 | 1020.5 |
| 20260502190435 | 63 | 19 | 3.0 | 8.0 | 0.00 | 0.02 | 0.00 | 83 | 1020.6 |
| 20260502185935 | 63 | 26 | 3.0 | 4.0 | 0.00 | 0.02 | 0.00 | 83 | 1020.6 |
| 20260502185436 | 63 | 28 | 3.0 | 6.0 | 0.00 | 0.02 | 0.00 | 83 | 1020.4 |
| 20260502184935 | 63 | 22 | 3.0 | 5.0 | 0.00 | 0.02 | 0.00 | 83 | 1020.4 |
| 20260502184435 | 63 | 26 | 3.0 | 6.0 | 0.00 | 0.02 | 0.00 | 83 | 1020.5 |
| 20260502183935 | 63 | 24 | 4.0 | 6.0 | 0.00 | 0.02 | 0.00 | 84 | 1020.3 |
| 20260502183435 | 63 | 26 | 4.0 | 6.0 | 0.00 | 0.02 | 0.00 | 84 | 1020.3 |
| 20260502182935 | 63 | 24 | 4.0 | 8.0 | 0.00 | 0.02 | 0.00 | 84 | 1020.3 |
| 20260502182435 | 63 | 24 | 4.0 | 8.0 | 0.00 | 0.02 | 0.00 | 83 | 1020.3 |
| 20260502181935 | 64 | 26 | 4.0 | 6.0 | 0.00 | 0.02 | 0.00 | 84 | 1020.3 |
| 20260502181435 | 64 | 25 | 4.0 | 7.0 | 0.00 | 0.02 | 0.00 | 84 | 1020.2 |
| 20260502180935 | 63 | 22 | 3.0 | 8.0 | 0.00 | 0.02 | 0.00 | 84 | 1020.2 |
| 20260502180435 | 63 | 27 | 3.0 | 6.0 | 0.00 | 0.02 | 0.00 | 84 | 1020.4 |
| 20260502170436 | 64 | 26 | 5.0 | 9.0 | 0.00 | 0.02 | 0.00 | 85 | 1020.5 |
| 20260502163936 | 64 | 26 | 6.0 | 10.0 | 0.00 | 0.02 | 0.00 | 86 | 1020.7 |
| 20260502163436 | 64 | 24 | 6.0 | 10.0 | 0.00 | 0.02 | 0.00 | 86 | 1020.8 |
| 20260502162936 | 64 | 17 | 5.0 | 10.0 | 0.00 | 0.02 | 0.00 | 87 | 1020.9 |
| 20260502162436 | 64 | 23 | 5.0 | 10.0 | 0.00 | 0.02 | 0.00 | 87 | 1020.9 |
| 20260502161936 | 64 | 26 | 6.0 | 9.0 | 0.00 | 0.02 | 0.00 | 87 | 1020.8 |
| 20260502161436 | 64 | 26 | 6.0 | 10.0 | 0.00 | 0.02 | 0.00 | 87 | 1020.8 |
| 20260502160936 | 64 | 25 | 6.0 | 9.0 | 0.00 | 0.02 | 0.00 | 87 | 1020.9 |
| 20260502160436 | 64 | 24 | 7.0 | 11.0 | 0.00 | 0.02 | 0.00 | 86 | 1020.7 |
| 20260502151936 | 64 | 22 | 6.0 | 9.0 | 0.00 | 0.02 | 0.00 | 87 | 1021.1 |
| 20260502151436 | 65 | 26 | 6.0 | 9.0 | 0.00 | 0.02 | 0.00 | 87 | 1021.2 |
| 20260502150936 | 65 | 24 | 7.0 | 11.0 | 0.00 | 0.02 | 0.00 | 87 | 1021.2 |
| 20260502150436 | 65 | 22 | 7.0 | 10.0 | 0.00 | 0.02 | 0.00 | 87 | 1021.2 |
| 20260502130436 | 66 | 29 | 5.0 | 10.0 | 0.00 | 0.06 | 0.04 | 88 | 1021.5 |
| 20260502123436 | 66 | 28 | 4.0 | 8.0 | 0.00 | 0.06 | 0.04 | 88 | 1021.6 |
| 20260502122936 | 66 | 30 | 4.0 | 8.0 | 0.00 | 0.06 | 0.04 | 88 | 1021.7 |
| 20260502122436 | 67 | 31 | 4.0 | 8.0 | 0.00 | 0.06 | 0.04 | 88 | 1021.8 |
| 20260502121936 | 67 | 29 | 4.0 | 7.0 | 0.00 | 0.06 | 0.04 | 88 | 1021.7 |
| 20260502121436 | 67 | 25 | 3.0 | 6.0 | 0.00 | 0.06 | 0.04 | 88 | 1021.7 |
| 20260502120936 | 67 | 25 | 3.0 | 6.0 | 0.00 | 0.06 | 0.04 | 89 | 1021.7 |
| 20260502120436 | 67 | 26 | 3.0 | 4.0 | 0.00 | 0.06 | 0.04 | 88 | 1021.7 |
| 20260502115436 | 67 | 27 | 3.0 | 5.0 | 0.00 | 0.06 | 0.04 | 89 | 1021.8 |
| 20260502114936 | 67 | 24 | 3.0 | 6.0 | 0.00 | 0.06 | 0.04 | 89 | 1021.9 |
| 20260502114436 | 67 | 22 | 4.0 | 4.0 | 0.00 | 0.06 | 0.04 | 89 | 1022.0 |
| 20260502113936 | 67 | 29 | 3.0 | 8.0 | 0.00 | 0.06 | 0.04 | 89 | 1022.0 |
| 20260502113436 | 67 | 31 | 2.0 | 4.0 | 0.00 | 0.06 | 0.04 | 89 | 1021.9 |
| 20260502112936 | 67 | 26 | 2.0 | 5.0 | 0.00 | 0.06 | 0.04 | 89 | 1021.9 |
| 20260502112436 | 67 | 24 | 2.0 | 6.0 | 0.00 | 0.06 | 0.04 | 90 | 1021.8 |
| 20260502111936 | 67 | 27 | 2.0 | 3.0 | 0.00 | 0.06 | 0.04 | 90 | 1021.8 |
| 20260502111436 | 67 | 23 | 1.0 | 3.0 | 0.01 | 0.10 | 0.04 | 90 | 1021.8 |
| 20260502110936 | 67 | 21 | 2.0 | 3.0 | 0.01 | 0.10 | 0.04 | 90 | 1021.7 |
| 20260502110436 | 67 | 28 | 2.0 | 4.0 | 0.01 | 0.10 | 0.04 | 90 | 1021.6 |
| 20260502105936 | 67 | 24 | 2.0 | 5.0 | 0.01 | 0.10 | 0.04 | 90 | 1021.6 |
| 20260502105436 | 67 | 31 | 2.0 | 5.0 | 0.01 | 0.10 | 0.04 | 89 | 1021.6 |
| 20260502104936 | 67 | 21 | 1.0 | 4.0 | 0.01 | 0.10 | 0.04 | 89 | 1021.7 |
| 20260502104436 | 67 | 40 | 2.0 | 5.0 | 0.01 | 0.10 | 0.04 | 88 | 1021.7 |
| 20260502103936 | 67 | 26 | 5.0 | 10.0 | 0.01 | 0.10 | 0.04 | 88 | 1021.8 |
| 20260502103436 | 67 | 26 | 6.0 | 11.0 | 0.01 | 0.10 | 0.04 | 88 | 1021.7 |
| 20260502102936 | 67 | 19 | 6.0 | 13.0 | 0.01 | 0.10 | 0.04 | 87 | 1021.6 |
| 20260502102436 | 67 | 28 | 5.0 | 9.0 | 0.01 | 0.10 | 0.04 | 87 | 1021.6 |
| 20260502101936 | 68 | 22 | 4.0 | 9.0 | 0.01 | 0.10 | 0.04 | 87 | 1021.7 |
| 20260502101436 | 68 | 23 | 3.0 | 6.0 | 0.00 | 0.09 | 0.03 | 86 | 1021.7 |
| 20260502100936 | 68 | 32 | 3.0 | 5.0 | 0.00 | 0.09 | 0.03 | 86 | 1021.6 |
| 20260502100436 | 68 | 21 | 3.0 | 6.0 | 0.00 | 0.09 | 0.03 | 86 | 1021.6 |
| 20260502091436 | 68 | 27 | 4.0 | 9.0 | 0.00 | 0.09 | 0.03 | 85 | 1021.2 |
| 20260502090936 | 68 | 28 | 4.0 | 10.0 | 0.00 | 0.09 | 0.03 | 85 | 1021.0 |
| 20260502090436 | 68 | 16 | 5.0 | 10.0 | 0.00 | 0.09 | 0.03 | 85 | 1020.9 |
| 20260502071436 | 70 | 29 | 5.0 | 10.0 | 0.00 | 0.09 | 0.03 | 78 | 1020.5 |
| 20260502070936 | 70 | 26 | 4.0 | 8.0 | 0.00 | 0.09 | 0.03 | 78 | 1020.4 |
| 20260502070436 | 70 | 26 | 5.0 | 9.0 | 0.00 | 0.09 | 0.03 | 77 | 1020.2 |
| 20260502065936 | 70 | 22 | 6.0 | 11.0 | 0.00 | 0.09 | 0.03 | 77 | 1020.0 |
| 20260502065436 | 70 | 23 | 7.0 | 15.0 | 0.00 | 0.09 | 0.03 | 75 | 1020.1 |
| 20260502064936 | 71 | 19 | 8.0 | 15.0 | 0.00 | 0.09 | 0.03 | 76 | 1019.9 |
| 20260502064436 | 71 | 22 | 7.0 | 14.0 | 0.00 | 0.09 | 0.03 | 74 | 1019.9 |
| 20260502063936 | 72 | 24 | 6.0 | 14.0 | 0.00 | 0.09 | 0.03 | 73 | 1019.9 |
| 20260502063436 | 72 | 22 | 6.0 | 11.0 | 0.00 | 0.09 | 0.03 | 73 | 1020.0 |
| 20260502062936 | 72 | 15 | 6.0 | 11.0 | 0.00 | 0.09 | 0.03 | 72 | 1019.9 |
| 20260502062436 | 72 | 22 | 7.0 | 12.0 | 0.00 | 0.09 | 0.03 | 71 | 1019.8 |
| 20260502061936 | 73 | 22 | 7.0 | 16.0 | 0.00 | 0.09 | 0.03 | 70 | 1019.9 |
| 20260502061436 | 73 | 17 | 7.0 | 15.0 | 0.00 | 0.09 | 0.03 | 69 | 1019.9 |
| 20260502060936 | 73 | 23 | 7.0 | 16.0 | 0.00 | 0.09 | 0.03 | 68 | 1019.7 |
| 20260502060436 | 73 | 23 | 9.0 | 14.0 | 0.00 | 0.09 | 0.03 | 67 | 1019.7 |
| 20260502055936 | 73 | 24 | 10.0 | 18.0 | 0.00 | 0.09 | 0.03 | 67 | 1019.8 |
| 20260502055437 | 73 | 17 | 10.0 | 22.0 | 0.00 | 0.09 | 0.03 | 66 | 1019.8 |
| 20260502054936 | 74 | 22 | 11.0 | 20.0 | 0.00 | 0.09 | 0.03 | 65 | 1019.7 |
| 20260502054437 | 74 | 26 | 11.0 | 20.0 | 0.00 | 0.09 | 0.03 | 64 | 1019.7 |
| 20260502053937 | 74 | 27 | 9.0 | 18.0 | 0.00 | 0.09 | 0.03 | 65 | 1019.7 |
| 20260502053436 | 74 | 23 | 7.0 | 12.0 | 0.00 | 0.09 | 0.03 | 68 | 1019.7 |
| 20260502052937 | 73 | 22 | 6.0 | 16.0 | 0.00 | 0.09 | 0.03 | 70 | 1019.8 |
| 20260502052437 | 73 | 24 | 5.0 | 14.0 | 0.00 | 0.09 | 0.03 | 72 | 1019.6 |
| 20260502051937 | 73 | 27 | 6.0 | 13.0 | 0.00 | 0.09 | 0.03 | 72 | 1019.5 |
| 20260502051437 | 73 | 29 | 10.0 | 18.0 | 0.00 | 0.09 | 0.03 | 72 | 1019.5 |
| 20260502050937 | 74 | 15 | 9.0 | 19.0 | 0.00 | 0.09 | 0.03 | 68 | 1019.6 |
| 20260502050437 | 76 | 15 | 8.0 | 18.0 | 0.00 | 0.09 | 0.03 | 66 | 1019.5 |
| 20260502045937 | 76 | 22 | 9.0 | 19.0 | 0.00 | 0.09 | 0.03 | 66 | 1019.5 |
| 20260502045437 | 75 | 19 | 9.0 | 18.0 | 0.00 | 0.09 | 0.03 | 66 | 1019.5 |
| 20260502044937 | 75 | 19 | 9.0 | 16.0 | 0.00 | 0.09 | 0.03 | 67 | 1019.6 |
| 20260502044437 | 74 | 15 | 9.0 | 18.0 | 0.00 | 0.09 | 0.03 | 67 | 1019.7 |
| 20260502043937 | 75 | 17 | 9.0 | 17.0 | 0.00 | 0.09 | 0.03 | 66 | 1019.8 |
| 20260502043437 | 75 | 19 | 9.0 | 18.0 | 0.00 | 0.09 | 0.03 | 66 | 1019.8 |
| 20260502042937 | 75 | 24 | 9.0 | 15.0 | 0.00 | 0.09 | 0.03 | 66 | 1019.8 |
| 20260502042437 | 75 | 22 | 11.0 | 16.0 | 0.00 | 0.09 | 0.03 | 65 | 1019.7 |
| 20260502041937 | 76 | 21 | 12.0 | 17.0 | 0.00 | 0.09 | 0.03 | 64 | 1019.6 |
| 20260502041437 | 75 | 22 | 10.0 | 21.0 | 0.00 | 0.09 | 0.03 | 65 | 1019.6 |
| 20260502040937 | 75 | 23 | 6.0 | 21.0 | 0.00 | 0.09 | 0.03 | 65 | 1019.6 |
| 20260502040437 | 75 | 55 | 7.0 | 15.0 | 0.00 | 0.09 | 0.03 | 66 | 1019.6 |
| 20260502035937 | 75 | 20 | 7.0 | 21.0 | 0.00 | 0.09 | 0.03 | 64 | 1019.6 |
| 20260502035437 | 75 | 27 | 4.0 | 14.0 | 0.00 | 0.09 | 0.03 | 63 | 1019.7 |
| 20260502034937 | 76 | 33 | 3.0 | 8.0 | 0.00 | 0.09 | 0.03 | 64 | 1019.7 |
| 20260502034437 | 76 | 22 | 3.0 | 10.0 | 0.00 | 0.09 | 0.03 | 63 | 1019.8 |
| 20260502033937 | 75 | 13 | 1.0 | 9.0 | 0.00 | 0.09 | 0.03 | 65 | 1019.9 |
| 20260502033437 | 74 | 28 | 2.0 | 5.0 | 0.00 | 0.09 | 0.03 | 67 | 1019.9 |
| 20260502032937 | 74 | 9 | 5.0 | 13.0 | 0.00 | 0.09 | 0.03 | 68 | 1020.0 |
| 20260502032437 | 75 | 25 | 6.0 | 17.0 | 0.00 | 0.09 | 0.03 | 66 | 1020.0 |
| 20260502031937 | 75 | 18 | 4.0 | 14.0 | 0.00 | 0.09 | 0.03 | 64 | 1019.9 |
| 20260502031437 | 75 | 24 | 3.0 | 12.0 | 0.00 | 0.09 | 0.03 | 65 | 1020.0 |
| 20260502030937 | 75 | 28 | 3.0 | 11.0 | 0.00 | 0.09 | 0.03 | 65 | 1020.1 |
| 20260502030437 | 75 | 18 | 4.0 | 18.0 | 0.00 | 0.09 | 0.03 | 66 | 1020.1 |
| 20260502025937 | 75 | 19 | 7.0 | 15.0 | 0.00 | 0.09 | 0.03 | 65 | 1020.1 |
| 20260502025437 | 75 | 52 | 9.0 | 18.0 | 0.00 | 0.09 | 0.03 | 67 | 1020.1 |
| 20260502024937 | 76 | 5 | 10.0 | 16.0 | 0.00 | 0.09 | 0.03 | 66 | 1020.2 |
| 20260502024437 | 76 | 20 | 13.0 | 18.0 | 0.00 | 0.09 | 0.03 | 66 | 1020.6 |
| 20260502023937 | 76 | 24 | 13.0 | 21.0 | 0.00 | 0.09 | 0.03 | 66 | 1020.5 |
| 20260502023437 | 76 | 21 | 12.0 | 19.0 | 0.00 | 0.09 | 0.03 | 66 | 1020.5 |
| 20260502022937 | 76 | 18 | 12.0 | 19.0 | 0.00 | 0.09 | 0.03 | 67 | 1020.5 |
| 20260502022437 | 76 | 20 | 11.0 | 19.0 | 0.00 | 0.09 | 0.03 | 65 | 1020.5 |
| 20260502021937 | 76 | 21 | 9.0 | 23.0 | 0.00 | 0.09 | 0.03 | 66 | 1020.7 |
| 20260502021437 | 74 | 19 | 10.0 | 14.0 | 0.00 | 0.09 | 0.03 | 70 | 1020.7 |
| 20260502020937 | 74 | 18 | 12.0 | 20.0 | 0.00 | 0.09 | 0.03 | 69 | 1020.6 |
| 20260502020437 | 74 | 19 | 13.0 | 20.0 | 0.00 | 0.09 | 0.03 | 68 | 1021.1 |
| 20260502015937 | 75 | 29 | 13.0 | 23.0 | 0.00 | 0.09 | 0.03 | 68 | 1021.1 |
| 20260502015437 | 74 | 17 | 10.0 | 21.0 | 0.00 | 0.09 | 0.03 | 69 | 1021.1 |
| 20260502014937 | 73 | 20 | 9.0 | 16.0 | 0.00 | 0.09 | 0.03 | 70 | 1021.1 |
| 20260502014437 | 73 | 22 | 10.0 | 17.0 | 0.00 | 0.09 | 0.03 | 71 | 1021.2 |
| 20260502013937 | 74 | 22 | 9.0 | 16.0 | 0.00 | 0.09 | 0.03 | 73 | 1021.3 |
| 20260502013437 | 74 | 20 | 10.0 | 15.0 | 0.00 | 0.09 | 0.03 | 73 | 1021.2 |
| 20260502012937 | 74 | 26 | 10.0 | 18.0 | 0.00 | 0.09 | 0.03 | 75 | 1021.4 |
| 20260502012437 | 74 | 24 | 9.0 | 15.0 | 0.00 | 0.09 | 0.03 | 74 | 1021.4 |
| 20260502011937 | 73 | 12 | 10.0 | 16.0 | 0.00 | 0.09 | 0.03 | 77 | 1021.6 |
| 20260502011437 | 72 | 22 | 11.0 | 18.0 | 0.00 | 0.09 | 0.03 | 78 | 1021.6 |
| 20260502010937 | 72 | 24 | 10.0 | 21.0 | 0.00 | 0.09 | 0.03 | 77 | 1021.6 |
| 20260502010437 | 74 | 23 | 7.0 | 20.0 | 0.00 | 0.09 | 0.03 | 77 | 1021.7 |
| 20260502005937 | 73 | 17 | 7.0 | 17.0 | 0.00 | 0.09 | 0.03 | 78 | 1021.8 |